Altus, OK

1:04 AM CST on February 10, 2016 (GMT -0600)
Altus Air Force Base

Weather History for KLTS - January, 2014

Change the Weather History Date:

Friday, January 10, 2014

  Actual Average Record
Temperature  
Mean Temperature 48 °F -  
Max Temperature 60 °F 48 °F 69 °F (2000)
Min Temperature 35 °F 26 °F 17 °F (1999)
Degree Days  
Heating Degree Days 18    
Moisture  
Dew Point 39 °F    
Average Humidity 88    
Maximum Humidity 100    
Minimum Humidity 28    
Precipitation  
Precipitation 0.00 in - - ()
Sea Level Pressure  
Sea Level Pressure 29.81 in    
Wind  
Wind Speed 9 mph (SSE)    
Max Wind Speed 16 mph    
Max Gust Speed 21 mph    
Visibility 3 miles    
Events Fog    
Averages and records for this station are not official NWS values.
T = Trace of Precipitation, MM = Missing Value Source: NWS Daily Summary

Daily Weather History Graph

Daily Weather History Graph

Search for Another Location

Airport or City:

Trip Planner

Search our weather history database for the weather conditions in past years. The results will help you decide how hot, cold, wet, or windy it might be!

Date:

Astronomy

Jan. 10, 2014 Rise Set
Actual Time 7:44 AM CST 5:44 PM CST
Civil Twilight 7:17 AM CST 6:12 PM CST
Nautical Twilight 6:45 AM CST 6:43 PM CST
Astronomical Twilight 6:15 AM CST 7:14 PM CST
Moon 1:46 PM CST 2:57 AM CST
Length of Visible Light 10h 55m
Length of Day
10h 00m
Waxing Gibbous, 75% of the Moon is Illuminated
Jan 10
Waxing Gibbous
Jan 15
Full
Jan 23
Last Quarter
Jan 30
New
Feb 6
First Quarter

Hourly Weather History & Observations

Time (CST) Temp. Windchill Dew Point Humidity Pressure Visibility Wind Dir Wind Speed Gust Speed Precip Events Conditions
12:13 AM 39.2 °F 32.5 °F 39.2 °F 100% 29.92 in 0.5 mi SE 10.4 mph - N/A Fog Fog
12:18 AM 39.2 °F 32.5 °F 39.2 °F 100% 29.92 in 0.5 mi SE 10.4 mph - N/A Fog Fog
12:33 AM 39.2 °F 32.5 °F 39.2 °F 100% 29.91 in 0.2 mi SE 10.4 mph - N/A Fog Fog
12:38 AM 39.2 °F 32.5 °F 39.2 °F 100% 29.91 in 0.5 mi SE 10.4 mph - N/A Fog Fog
12:43 AM 39.2 °F 34.2 °F 39.2 °F 100% 29.90 in 0.5 mi SE 6.9 mph - N/A Fog Fog
12:58 AM 38.5 °F 31.6 °F 38.5 °F 100% 29.92 in 0.5 mi SE 10.4 mph - N/A Fog Fog
1:08 AM 39.2 °F 33.0 °F 39.2 °F 100% 29.89 in 0.5 mi SE 9.2 mph - N/A Fog Fog
1:18 AM 39.2 °F 32.5 °F 39.2 °F 100% 29.88 in 0.8 mi SE 10.4 mph - N/A   Mist
1:43 AM 39.2 °F 33.0 °F 39.2 °F 100% 29.87 in 0.5 mi SE 9.2 mph - N/A Fog Fog
1:53 AM 39.2 °F 33.0 °F 39.2 °F 100% 29.87 in 0.8 mi SE 9.2 mph - N/A   Mist
1:58 AM 39.6 °F 33.5 °F 39.6 °F 100% 29.89 in 0.5 mi ESE 9.2 mph - N/A Fog Fog
2:08 AM 41.0 °F 34.7 °F 41.0 °F 100% 29.86 in 0.8 mi ESE 10.4 mph - N/A   Mist
2:13 AM 41.0 °F 35.8 °F 41.0 °F 100% 29.86 in 0.5 mi ESE 8.1 mph - N/A Fog Fog
2:18 AM 41.0 °F 34.7 °F 41.0 °F 100% 29.86 in 0.8 mi SE 10.4 mph - N/A   Mist
2:23 AM 41.0 °F 34.3 °F 41.0 °F 100% 29.86 in 0.8 mi SE 11.5 mph - N/A   Mist
2:28 AM 41.0 °F 35.2 °F 41.0 °F 100% 29.86 in 1.0 mi SE 9.2 mph - N/A   Mist
2:33 AM 41.0 °F 34.7 °F 41.0 °F 100% 29.86 in 1.2 mi SE 10.4 mph - N/A   Overcast
2:38 AM 41.0 °F 35.2 °F 41.0 °F 100% 29.85 in 1.0 mi SE 9.2 mph - N/A   Overcast
2:43 AM 41.0 °F 34.7 °F 41.0 °F 100% 29.86 in 0.8 mi SE 10.4 mph - N/A   Overcast
2:48 AM 41.0 °F 34.7 °F 41.0 °F 100% 29.86 in 1.0 mi SSE 10.4 mph - N/A   Mist
2:53 AM 41.0 °F 34.7 °F 41.0 °F 100% 29.86 in 1.2 mi SSE 10.4 mph - N/A   Overcast
2:58 AM 40.3 °F 33.9 °F 40.3 °F 100% 29.87 in 1.0 mi SSE 10.4 mph - N/A   Mist
3:08 AM 41.0 °F 34.3 °F 41.0 °F 100% 29.85 in 1.0 mi SSE 11.5 mph - N/A   Mist
3:28 AM 41.0 °F 34.7 °F 41.0 °F 100% 29.84 in 0.8 mi SSE 10.4 mph - N/A   Mist
3:38 AM 41.0 °F 34.7 °F 41.0 °F 100% 29.83 in 0.8 mi SSE 10.4 mph - N/A   Mist
3:58 AM 40.1 °F 32.7 °F 40.1 °F 100% 29.85 in 0.8 mi SSE 12.7 mph - N/A   Mist
4:03 AM 41.0 °F 33.5 °F 41.0 °F 100% 29.82 in 0.5 mi SSE 13.8 mph - N/A Fog Fog
4:33 AM 41.0 °F 35.8 °F 41.0 °F 100% 29.81 in 0.2 mi SSE 8.1 mph - N/A Fog Fog
4:48 AM 41.0 °F 34.7 °F 41.0 °F 100% 29.80 in 0.5 mi SSE 10.4 mph - N/A Fog Fog
4:53 AM 41.0 °F 35.2 °F 41.0 °F 100% 29.79 in 0.2 mi SSE 9.2 mph - N/A Fog Fog
4:58 AM 40.3 °F 34.9 °F 40.3 °F 100% 29.81 in 0.2 mi SE 8.1 mph - N/A Fog Fog
5:08 AM 41.0 °F 34.7 °F 41.0 °F 100% 29.78 in 0.2 mi SSE 10.4 mph - N/A Fog Fog
5:58 AM 41.4 °F 35.7 °F 41.4 °F 100% 29.80 in 0.2 mi South 9.2 mph - N/A Fog Fog
6:03 AM 41.0 °F 35.8 °F 41.0 °F 100% 29.78 in 0.2 mi South 8.1 mph - N/A Fog Fog
6:18 AM 41.0 °F 35.2 °F 41.0 °F 100% 29.78 in 0.2 mi South 9.2 mph - N/A Fog Fog
6:38 AM 41.0 °F 35.8 °F 41.0 °F 100% 29.77 in 0.2 mi SSE 8.1 mph - N/A Fog Fog
6:43 AM 42.8 °F 37.5 °F 42.8 °F 100% 29.77 in 0.2 mi SSE 9.2 mph - N/A Fog Fog
6:58 AM 41.9 °F 36.3 °F 41.9 °F 100% 29.78 in 0.2 mi SSE 9.2 mph - N/A Fog Fog
7:08 AM 42.8 °F 36.6 °F 42.8 °F 100% 29.76 in 0.2 mi SSE 11.5 mph - N/A Fog Fog
7:13 AM 42.8 °F 38.0 °F 42.8 °F 100% 29.77 in 0.2 mi SSE 8.1 mph - N/A Fog Fog
7:53 AM 42.8 °F 37.5 °F 42.8 °F 100% 29.76 in 0.5 mi SSE 9.2 mph - N/A Fog Fog
7:58 AM 42.6 °F 37.8 °F 42.6 °F 100% 29.78 in 0.5 mi SSE 8.1 mph - N/A Fog Fog
8:03 AM 42.8 °F 38.0 °F 42.8 °F 100% 29.75 in 0.2 mi SSE 8.1 mph - N/A Fog Fog
8:08 AM 42.8 °F 38.0 °F 42.8 °F 100% 29.75 in 0.2 mi SSE 8.1 mph - N/A Fog Fog
8:13 AM 42.8 °F 38.6 °F 42.8 °F 100% 29.76 in 0.5 mi SSE 6.9 mph - N/A Fog Fog
8:18 AM 42.8 °F 38.0 °F 42.8 °F 100% 29.75 in 0.8 mi SSE 8.1 mph - N/A   Mist
8:23 AM 42.8 °F 38.6 °F 42.8 °F 100% 29.75 in 1.2 mi South 6.9 mph - N/A   Mostly Cloudy
8:28 AM 42.8 °F 39.3 °F 42.8 °F 100% 29.75 in 2.5 mi SSE 5.8 mph - N/A   Scattered Clouds
8:33 AM 42.8 °F - 42.8 °F 100% 29.75 in 2.0 mi South 1.2 mph - N/A   Scattered Clouds
8:43 AM 42.8 °F 41.1 °F 42.8 °F 100% 29.76 in 2.5 mi SSE 3.5 mph - N/A   Partly Cloudy
8:58 AM 42.4 °F 39.6 °F 42.4 °F 100% 29.77 in 2.5 mi SE 4.6 mph - N/A   Clear
9:03 AM 42.8 °F - 42.8 °F 100% 29.75 in 3.0 mi SE 1.2 mph - N/A   Clear
9:58 AM 43.9 °F 38.8 °F 43.9 °F 100% 29.77 in 6.0 mi South 9.2 mph - N/A   Mostly Cloudy
10:58 AM 50.5 °F - 50.5 °F 100% 29.75 in 10.0 mi WSW 10.4 mph - N/A   Clear
11:53 AM 55.4 °F - 39.2 °F 54% 29.72 in 10.0 mi WNW 15.0 mph - N/A   Clear
11:58 AM 56.1 °F - 39.2 °F 53% 29.71 in 10.0 mi WNW 16.1 mph - N/A   Clear
12:58 PM 57.9 °F - 34.5 °F 41% 29.69 in 10.0 mi NW 11.5 mph - N/A   Clear
1:58 PM 59.0 °F - 30.9 °F 35% 29.69 in 10.0 mi NNW 12.7 mph 20.7 mph N/A   Clear
2:58 PM 59.7 °F - 27.7 °F 30% 29.70 in 10.0 mi NW 15.0 mph - N/A   Clear
3:58 PM 60.1 °F - 26.2 °F 28% 29.71 in 10.0 mi NNW 9.2 mph - N/A   Clear
4:58 PM 58.6 °F - 25.2 °F 28% 29.73 in 10.0 mi NNW 9.2 mph - N/A   Clear
5:58 PM 47.5 °F - 23.0 °F 38% 29.75 in 10.0 mi NNW 8.1 mph - N/A   Clear
6:58 PM 42.3 °F 40.5 °F 23.4 °F 47% 29.77 in 10.0 mi North 3.5 mph - N/A   Clear
7:58 PM 35.8 °F - 23.2 °F 60% 29.79 in 10.0 mi NE 2.3 mph - N/A   Clear
8:58 PM 40.1 °F 38.0 °F 25.7 °F 56% 29.81 in 10.0 mi North 3.5 mph - N/A   Overcast
9:58 PM 43.9 °F 40.5 °F 24.4 °F 46% 29.82 in 10.0 mi NW 5.8 mph - N/A   Clear
10:58 PM 40.8 °F 35.6 °F 23.2 °F 50% 29.85 in 10.0 mi NW 8.1 mph - N/A   Clear
11:58 PM 41.9 °F 36.3 °F 20.7 °F 43% 29.86 in 10.0 mi NW 9.2 mph - N/A   Clear